• In Hungary
  • List of Countries
  • For 7 days
  • Water Temperature
  • Satellite Maps
  • Weather Map
  • News
  • Weather Widgets
  • user-avatar
    Login

    Hourly Weather Voyteli

    Today, 25 February, Sunday

    Time Temperature Precipitation Wind Pressure Humidity
    00:00 -21°C° 0 mm 3 mps 745 mmHg 96%
    01:00 -22°C° 0 mm 3 mps 745 mmHg 97%
    02:00 -22°C° 0 mm 3 mps 745 mmHg 98%
    03:00 -20°C° 0 mm 2 mps 745 mmHg 98%
    04:00 -20°C° 0 mm 2 mps 744 mmHg 98%
    05:00 -21°C° 0 mm 2 mps 744 mmHg 98%
    06:00 -21°C° 0 mm 2 mps 744 mmHg 98%
    07:00 -21°C° 0 mm 2 mps 745 mmHg 98%
    08:00 -23°C° 0 mm 3 mps 745 mmHg 97%
    09:00 -20°C° 0 mm 2 mps 745 mmHg 95%
    10:00 -19°C° 0 mm 2 mps 745 mmHg 93%
    11:00 -18°C° 0 mm 2 mps 745 mmHg 91%
    12:00 -17°C° 0 mm 2 mps 745 mmHg 89%
    13:00 -16°C° 0 mm 2 mps 745 mmHg 87%
    14:00 -16°C° 0 mm 2 mps 745 mmHg 86%
    15:00 -16°C° 0 mm 2 mps 744 mmHg 87%
    16:00 -17°C° 0 mm 2 mps 744 mmHg 89%
    17:00 -17°C° 0 mm 2 mps 744 mmHg 90%
    18:00 -18°C° 0 mm 2 mps 744 mmHg 92%
    19:00 -19°C° 0 mm 2 mps 744 mmHg 93%
    20:00 -20°C° 0 mm 2 mps 744 mmHg 95%
    21:00 -20°C° 0 mm 2 mps 744 mmHg 96%
    22:00 -21°C° 0 mm 2 mps 744 mmHg 97%
    23:00 -21°C° 0 mm 2 mps 744 mmHg 97%

    Tomorrow, 26 February, Monday

    Time Temperature Precipitation Wind Pressure Humidity
    00:00 -23°C° 0 mm 2 mps 744 mmHg 97%
    01:00 -23°C° 0 mm 2 mps 744 mmHg 98%
    02:00 -23°C° 0 mm 2 mps 744 mmHg 98%
    03:00 -23°C° 0 mm 2 mps 744 mmHg 98%
    04:00 -24°C° 0 mm 2 mps 743 mmHg 98%
    05:00 -24°C° 0 mm 2 mps 743 mmHg 98%
    06:00 -21°C° 0 mm 1 mps 743 mmHg 98%
    07:00 -21°C° 0 mm 1 mps 743 mmHg 98%
    08:00 -21°C° 0 mm 1 mps 743 mmHg 97%
    09:00 -19°C° 0 mm 1 mps 743 mmHg 94%
    10:00 -17°C° 0 mm 1 mps 743 mmHg 91%
    11:00 -16°C° 0 mm 1 mps 743 mmHg 88%
    12:00 -15°C° 0 mm 1 mps 743 mmHg 86%
    13:00 -14°C° 0 mm 1 mps 743 mmHg 84%
    14:00 -13°C° 0 mm 1 mps 743 mmHg 82%
    15:00 -14°C° 0 mm 1 mps 743 mmHg 84%
    16:00 -14°C° 0 mm 0 mps 743 mmHg 86%
    17:00 -15°C° 0 mm 0 mps 743 mmHg 89%
    18:00 -16°C° 0 mm 0 mps 743 mmHg 91%
    19:00 -17°C° 0 mm 0 mps 743 mmHg 93%
    20:00 -18°C° 0 mm 0 mps 743 mmHg 95%
    21:00 -19°C° 0 mm 0 mps 743 mmHg 95%
    22:00 -19°C° 0 mm 1 mps 743 mmHg 96%
    23:00 -19°C° 0 mm 1 mps 743 mmHg 96%

    Day after tomorrow, 27 February, Tuesday

    Time Temperature Precipitation Wind Pressure Humidity
    00:00 -20°C° 0 mm 1 mps 743 mmHg 96%
    01:00 -20°C° 0 mm 1 mps 743 mmHg 96%
    02:00 -20°C° 0 mm 1 mps 743 mmHg 97%
    03:00 -21°C° 0 mm 1 mps 744 mmHg 97%
    04:00 -24°C° 0 mm 2 mps 744 mmHg 97%
    05:00 -24°C° 0 mm 2 mps 744 mmHg 97%
    06:00 -24°C° 0 mm 2 mps 744 mmHg 97%
    07:00 -25°C° 0 mm 2 mps 745 mmHg 97%
    08:00 -26°C° 0 mm 3 mps 745 mmHg 97%
    09:00 -24°C° 0 mm 3 mps 745 mmHg 94%
    10:00 -23°C° 0 mm 3 mps 746 mmHg 92%
    11:00 -23°C° 0 mm 4 mps 746 mmHg 90%
    12:00 -22°C° 0 mm 4 mps 746 mmHg 88%
    13:00 -20°C° 0 mm 4 mps 747 mmHg 87%
    14:00 -20°C° 0 mm 5 mps 747 mmHg 85%
    15:00 -20°C° 0 mm 5 mps 747 mmHg 86%
    16:00 -21°C° 0 mm 5 mps 747 mmHg 87%
    17:00 -21°C° 0 mm 5 mps 747 mmHg 88%
    18:00 -21°C° 0 mm 5 mps 747 mmHg 88%
    19:00 -21°C° 0 mm 5 mps 748 mmHg 88%
    20:00 -23°C° 0 mm 6 mps 748 mmHg 89%
    21:00 -23°C° 0 mm 6 mps 748 mmHg 89%
    22:00 -22°C° 0 mm 6 mps 748 mmHg 89%
    23:00 -22°C° 0 mm 6 mps 748 mmHg 89%

    28 February, Wednesday

    Time Temperature Precipitation Wind Pressure Humidity
    00:00 -23°C° 0 mm 6 mps 748 mmHg 89%
    01:00 -23°C° 0 mm 6 mps 748 mmHg 89%
    02:00 -23°C° 0 mm 6 mps 748 mmHg 89%
    03:00 -23°C° 0 mm 6 mps 748 mmHg 88%
    04:00 -24°C° 0 mm 6 mps 748 mmHg 88%
    05:00 -24°C° 0 mm 6 mps 747 mmHg 88%
    06:00 -25°C° 0 mm 7 mps 747 mmHg 87%
    07:00 -25°C° 0 mm 7 mps 747 mmHg 87%
    08:00 -25°C° 0 mm 7 mps 747 mmHg 86%
    09:00 -24°C° 0 mm 7 mps 747 mmHg 85%
    10:00 -23°C° 0 mm 7 mps 747 mmHg 84%
    11:00 -23°C° 0 mm 7 mps 747 mmHg 83%
    12:00 -21°C° 0 mm 7 mps 746 mmHg 83%
    13:00 -20°C° 0 mm 7 mps 746 mmHg 83%
    14:00 -20°C° 0 mm 7 mps 746 mmHg 83%
    15:00 -20°C° 0.1 mm 7 mps 746 mmHg 83%
    16:00 -19°C° 0.1 mm 7 mps 745 mmHg 84%
    17:00 -18°C° 0.1 mm 6 mps 745 mmHg 85%
    18:00 -20°C° 0.1 mm 6 mps 745 mmHg 86%
    19:00 -20°C° 0.1 mm 6 mps 745 mmHg 87%
    20:00 -20°C° 0.1 mm 6 mps 745 mmHg 88%
    21:00 -20°C° 0.1 mm 6 mps 745 mmHg 88%
    22:00 -20°C° 0.1 mm 5 mps 745 mmHg 88%
    23:00 -20°C° 0.1 mm 5 mps 745 mmHg 89%

    1 March, Thursday

    Time Temperature Precipitation Wind Pressure Humidity
    00:00 -20°C° 0.1 mm 5 mps 745 mmHg 89%
    01:00 -20°C° 0.1 mm 5 mps 745 mmHg 90%
    02:00 -20°C° 0.1 mm 5 mps 745 mmHg 90%
    03:00 -19°C° 0.1 mm 4 mps 745 mmHg 91%
    04:00 -20°C° 0.1 mm 4 mps 744 mmHg 91%
    05:00 -20°C° 0.1 mm 4 mps 744 mmHg 91%
    06:00 -20°C° 0.1 mm 4 mps 744 mmHg 91%
    07:00 -20°C° 0.1 mm 4 mps 744 mmHg 91%
    08:00 -20°C° 0.1 mm 4 mps 744 mmHg 91%
    09:00 -19°C° 0 mm 4 mps 744 mmHg 90%
    10:00 -19°C° 0 mm 4 mps 745 mmHg 89%
    11:00 -18°C° 0 mm 4 mps 745 mmHg 87%
    12:00 -17°C° 0 mm 4 mps 744 mmHg 87%
    13:00 -17°C° 0 mm 4 mps 744 mmHg 87%
    14:00 -16°C° 0 mm 4 mps 744 mmHg 87%
    15:00 -16°C° 0 mm 4 mps 744 mmHg 88%
    16:00 -16°C° 0 mm 4 mps 743 mmHg 89%
    17:00 -16°C° 0 mm 4 mps 743 mmHg 90%
    18:00 -16°C° 0.1 mm 4 mps 743 mmHg 91%
    19:00 -16°C° 0.1 mm 4 mps 743 mmHg 92%
    20:00 -16°C° 0.1 mm 4 mps 743 mmHg 93%
    21:00 -16°C° 0.2 mm 4 mps 742 mmHg 93%
    22:00 -16°C° 0.2 mm 4 mps 742 mmHg 93%
    23:00 -15°C° 0.2 mm 4 mps 742 mmHg 93%

    2 March, Friday

    Time Temperature Precipitation Wind Pressure Humidity
    00:00 -16°C° 0.3 mm 4 mps 741 mmHg 93%
    01:00 -16°C° 0.3 mm 4 mps 741 mmHg 93%
    02:00 -16°C° 0.3 mm 4 mps 741 mmHg 93%
    03:00 -16°C° 0.2 mm 4 mps 740 mmHg 93%
    04:00 -15°C° 0.2 mm 3 mps 740 mmHg 93%
    05:00 -15°C° 0.2 mm 3 mps 740 mmHg 93%
    06:00 -15°C° 0.1 mm 3 mps 740 mmHg 93%
    07:00 -15°C° 0.1 mm 3 mps 740 mmHg 93%
    08:00 -15°C° 0.1 mm 3 mps 739 mmHg 93%
    09:00 -14°C° 0 mm 3 mps 739 mmHg 92%
    10:00 -14°C° 0 mm 3 mps 739 mmHg 91%
    11:00 -13°C° 0 mm 3 mps 739 mmHg 90%
    12:00 -13°C° 0 mm 3 mps 739 mmHg 89%
    13:00 -12°C° 0 mm 3 mps 738 mmHg 89%
    14:00 -9°C° 0 mm 2 mps 738 mmHg 89%
    15:00 -9°C° 0 mm 2 mps 738 mmHg 89%
    16:00 -9°C° 0 mm 2 mps 738 mmHg 90%
    17:00 -10°C° 0 mm 3 mps 737 mmHg 91%
    18:00 -9°C° 0 mm 2 mps 737 mmHg 92%
    19:00 -10°C° 0 mm 2 mps 737 mmHg 94%
    20:00 -10°C° 0 mm 2 mps 737 mmHg 95%
    21:00 -10°C° 0 mm 2 mps 737 mmHg 95%
    22:00 -10°C° 0 mm 2 mps 737 mmHg 95%
    23:00 -10°C° 0 mm 2 mps 737 mmHg 96%
    Show more